This demonstration page uses our WeatherBlox Daily Observations layout. Learn more.

Left ArrowRight Arrow

39.92423, -83.80882

Hourly Observations for June 1, 2018

Temp ( °F °C ) Dew Point ( °F °C ) Humidity (%) Winds ( mph kmh ) Pressure ( in mb ) Visibility ( mi km ) Precip ( " mm )
12:56 am 00:56 Clear 68 20 65 18.3 90 90 SSW 12 19 29.83 1010 10 16 N/A
1:56 am 01:56 Cloudy 68 20 65 18.3 90 90 SW 10 17 29.82 1010 10 16 N/A
2:56 am 02:56 Mostly Cloudy 68 20 65 18.3 90 90 SW 5 7 29.80 1009 10 16 N/A
3:56 am 03:56 Clear 67 19.4 65 18.3 93 93 SW 10 17 29.80 1009 10 16 N/A
4:56 am 04:56 Cloudy 66 18.9 65 18.3 96 96 SW 10 17 29.82 1010 10 16 N/A
5:10 am 05:10 Cloudy 66 19 64 18 94 94 SSW 12 19 29.83 1010 10 16 N/A
5:56 am 05:56 Mostly Cloudy 66 18.9 65 18.3 96 96 WSW 6 9 29.83 1010 10 16 N/A
6:56 am 06:56 Cloudy with Light Rain 66 18.9 65 18.3 96 96 WSW 3 6 29.86 1011 7 11 N/A
7:51 am 07:51 Cloudy with Light Rain 66 19 66 19 100 100 SW 3 6 29.85 1011 5 8 N/A
7:56 am 07:56 Cloudy with Light Rain 67 19.4 66 18.9 97 97 WSW 3 6 29.86 1011 5 8 0.01 0.25
8:16 am 08:16 Cloudy with Light Rain 66 19 66 19 100 100 WSW 5 7 29.83 1010 5 8 N/A
8:23 am 08:23 Cloudy with Light Rain 68 20 66 19 94 94 WSW 3 6 29.83 1010 5 8 N/A
8:33 am 08:33 Cloudy with Light Rain 68 20 66 19 94 94 W 3 6 29.83 1010 5 8 N/A
8:56 am 08:56 Mostly Cloudy with Mist and Fog 69 20.6 68 20 96 96 W 3 6 29.85 1011 6 10 0.01 0.25
9:11 am 09:11 Mostly Cloudy 70 21 66 19 88 88 N N/A 29.83 1010 8 13 N/A
9:56 am 09:56 Mostly Cloudy 70 21.1 68 20 93 93 WSW 5 7 29.86 1011 10 16 N/A
10:04 am 10:04 Mostly Cloudy 72 22 68 20 88 88 W 6 9 29.85 1011 10 16 N/A
10:56 am 10:56 Cloudy 72 22.2 69 20.6 91 91 SW 8 13 29.87 1012 10 16 N/A
11:15 am 11:15 Cloudy 72 22 70 21 94 94 WSW 8 13 29.85 1011 10 16 N/A
11:54 am 11:54 Mostly Cloudy 75 24 70 21 83 83 W 7 11 29.83 1010 10 16 N/A
11:56 am 11:56 Mostly Cloudy 75 23.9 69 20.6 82 82 WSW 8 13 29.88 1012 10 16 N/A
12:56 pm 12:56 Partly Cloudy 77 25 69 20.6 77 77 W 10 17 29.87 1012 10 16 N/A
1:56 pm 13:56 Mostly Cloudy 76 24.4 69 20.6 79 79 SW 6 9 29.86 1011 10 16 N/A
2:56 pm 14:56 Cloudy 78 25.6 69 20.6 74 74 W 7 11 29.85 1011 10 16 N/A
3:14 pm 15:14 Mostly Cloudy with Nearby Thunderstorms 79 26 70 21 74 74 W 8 13 29.80 1009 10 16 N/A
3:29 pm 15:29 Mostly Sunny 81 27 70 21 70 70 WNW 6 9 29.80 1009 10 16 N/A
3:56 pm 15:56 Sunny 79 26.1 69 20.6 72 72 W 6 9 29.83 1010 10 16 N/A
4:56 pm 16:56 Sunny 76 24.4 68 20 77 77 SSW 5 7 29.84 1010 10 16 N/A
5:56 pm 17:56 Sunny 77 25 69 20.6 77 77 WSW 5 7 29.84 1011 10 16 N/A
6:25 pm 18:25 Partly Cloudy with Nearby Thunderstorms 75 24 70 21 83 83 SW 6 9 29.80 1009 10 16 N/A
6:39 pm 18:39 Partly Cloudy with Nearby Thunderstorms 75 24 70 21 83 83 WSW 9 15 29.80 1009 10 16 N/A
6:56 pm 18:56 Mostly Cloudy with Thunderstorms 76 24.4 71 21.7 85 85 W 8 13 29.84 1011 10 16 N/A
7:04 pm 19:04 Mostly Cloudy with Light Rain 75 24 72 22 89 89 WNW 7 11 29.80 1009 10 16 N/A
7:56 pm 19:56 Cloudy 74 23.3 70 21.1 88 88 W 5 7 29.85 1011 10 16 N/A
8:06 pm 20:06 Cloudy with Nearby Thunderstorms 73 23 70 21 89 89 NNW 10 17 29.85 1011 10 16 N/A
8:21 pm 20:21 Cloudy 72 22 68 20 88 88 WNW 8 13 29.85 1011 10 16 N/A
8:56 pm 20:56 Partly Cloudy with Light Rain 71 21.7 69 20.6 94 94 W 7 11 29.86 1011 10 16 N/A
9:56 pm 21:56 Mostly Cloudy 70 21.1 69 20.6 97 97 N N/A 29.88 1012 10 16 N/A
10:56 pm 22:56 Partly Cloudy 69 20.6 68 20 96 96 N N/A 29.88 1012 9 14 N/A
11:56 pm 23:56 Clear 68 20 67 19.4 96 96 N N/A 29.88 1012 10 16 N/A

Powered by AerisWeather